This demonstration page uses our WeatherBlox Daily Observations layout. Learn more.

Left ArrowRight Arrow

39.08367, -84.50855

Hourly Observations for May 10, 2017

Temp ( °F °C ) Dew Point ( °F °C ) Humidity (%) Winds ( mph kmh ) Pressure ( in mb ) Visibility ( mi km ) Precip ( " mm )
12:53 am 00:53 Cloudy with Mist and Fog 56 13.3 56 13.3 100 100 N N/A 29.96 1015 6 9.65604 N/A
1:53 am 01:53 Cloudy 56 13.3 55 12.8 97 97 N N/A 29.96 1014 7 11.26538 N/A
2:53 am 02:53 Cloudy with Mist and Fog 56 13.3 55 12.8 97 97 N N/A 29.95 1014 6 9.65604 N/A
3:53 am 03:53 Cloudy with Mist and Fog 55 12.8 55 12.8 100 100 S 3 6 29.95 1014 5 8.0467 N/A
4:41 am 04:41 Cloudy with Mist and Fog 55 12.8 55 12.8 100 100 N N/A 29.94 1014 5 8.0467 N/A
4:53 am 04:53 Cloudy with Mist and Fog 55 12.8 55 12.8 100 100 N N/A 29.95 1014 5 8.0467 N/A
5:53 am 05:53 Cloudy with Mist and Fog 54 12.2 54 12.2 100 100 S 3 6 29.95 1014 3 4.82802 N/A
6:04 am 06:04 Cloudy with Mist and Fog 54 12 54 12 100 100 SSE 3 6 29.97 1015 2.5 4.02335 N/A
6:17 am 06:17 Cloudy with Mist and Fog 54 12.2 54 12.2 100 100 SSE 3 6 29.97 1015 2 3.21868 N/A
6:37 am 06:37 Cloudy with Mist and Fog 54 12.2 54 12.2 100 100 SE 3 6 29.97 1015 1.5 2.41401 N/A
6:53 am 06:53 Cloudy with Mist and Fog 54 12.2 54 12.2 100 100 N N/A 29.96 1015 1.25 2.011675 N/A
7:42 am 07:42 Cloudy with Mist and Fog 54 12 54 12 100 100 SSW 3 6 29.97 1015 1 1.60934 N/A
7:53 am 07:53 Cloudy with Mist and Fog 54 12.2 54 12.2 100 100 SSW 3 6 29.97 1015 1.75 2.816345 N/A
8:22 am 08:22 Cloudy with Mist and Fog 55 13 55 13 100 100 N N/A 29.97 1015 3 4.82802 N/A
8:53 am 08:53 Cloudy with Mist and Fog 56 13.3 56 13.3 100 100 N N/A 29.98 1015 2.5 4.02335 N/A
9:53 am 09:53 Cloudy with Mist and Fog 59 15 57 13.9 93 93 N N/A 29.99 1016 3 4.82802 N/A
10:05 am 10:05 Cloudy with Mist and Fog 59 15 57 13.9 93 93 NNE 3 6 29.97 1015 4 6.43736 N/A
10:23 am 10:23 Cloudy with Mist and Fog 60 15.6 58 14.4 93 93 NNW 3 6 29.97 1015 6 9.65604 N/A
10:42 am 10:42 Partly Cloudy with Mist and Fog 63 17 57 14 83 83 N N/A 29.97 1015 5 8.0467 N/A
10:53 am 10:53 Mostly Sunny 63 17.2 59 15 87 87 N N/A 29.98 1015 7 11.26538 N/A
11:53 am 11:53 Sunny 67 19.4 61 16.1 81 81 S 3 6 29.98 1015 8 12.87472 N/A
12:53 pm 12:53 Sunny 71 21.7 62 16.7 73 73 N N/A 29.96 1015 8 12.87472 N/A
1:53 pm 13:53 Mostly Sunny 75 23.9 64 17.8 69 69 N N/A 29.94 1014 10 16.0934 N/A
2:53 pm 14:53 Sunny 78 25.6 66 18.9 67 67 VRB 3 6 29.93 1014 10 16.0934 N/A
3:53 pm 15:53 Mostly Sunny 80 26.7 66 18.9 62 62 N N/A 29.9 1013 10 16.0934 N/A
4:53 pm 16:53 Mostly Sunny 81 27.2 66 18.9 61 61 N N/A 29.87 1012 10 16.0934 N/A
5:53 pm 17:53 Cloudy 79 26.1 67 19.4 67 67 WSW 6 9 29.87 1012 7 11.26538 N/A
6:53 pm 18:53 Partly Cloudy 81 27.2 64 17.8 57 57 SW 10 17 29.85 1011 10 16.0934 N/A
7:53 pm 19:53 Mostly Cloudy 78 25.6 64 17.8 62 62 SW 8 13 29.86 1011 10 16.0934 N/A
8:53 pm 20:53 Cloudy 71 21.7 67 19.4 87 87 SSW 3 6 29.87 1012 10 16.0934 N/A
9:53 pm 21:53 Cloudy 70 21.1 66 18.9 87 87 N N/A 29.85 1011 10 16.0934 N/A
10:53 pm 22:53 Mostly Cloudy 67 19.4 66 18.9 97 97 SSW 6 9 29.85 1011 9 14.48406 N/A
11:53 pm 23:53 Clear 70 21.1 64 17.8 82 82 SSW 9 15 29.85 1011 10 16.0934 N/A

Powered by AerisWeather